EW1549 Weather Reports


time (UTC)temp
F
wind
direction
speed
knots
gust
knots
rain 1hr
in
rain 24hr
in
rain mn
in
humidity
%
barometer
mb
20260901174549 0 36 7.0 21.7 0.00 0.00 0.00 1016.9
20260901173046 0 354 5.2 25.2 0.00 0.00 0.00 1016.9
20260901171549 0 41 9.6 20.0 0.00 0.00 0.00 1016.9
20260901170100 0 76 10.4 26.9 0.00 0.00 0.00 1016.8
20260901164537 0 330 8.7 25.2 0.00 0.00 0.00 1016.7
20260901163038 0 41 11.3 20.0 0.00 0.00 0.00 1016.7
20260901161525 0 28 10.4 20.0 0.00 0.00 0.00 1016.7
20260901160020 0 336 8.7 17.4 0.00 0.00 0.00 1016.7
20260901154515 0 352 7.0 16.5 0.00 0.00 0.00 1016.8
20260901153011 0 50 7.8 15.6 0.00 0.00 0.00 1016.9
20260901151510 0 46 0.9 17.4 0.00 0.00 0.00 1017.1
20260901150004 0 36 5.2 18.2 0.00 0.00 0.00 1017.2
20260901144502 0 46 8.7 15.6 0.00 0.00 0.00 1017.5
20260901143101 0 6 9.6 19.1 0.00 0.00 0.00 1017.6
20260901141600 0 52 8.7 17.4 0.00 0.00 0.00 1017.6
20260901140108 0 14 6.1 18.2 0.00 0.00 0.00 1017.9
20260901134557 0 55 10.4 17.4 0.00 0.00 0.00 1017.8
20260901133032 0 354 7.8 15.6 0.00 0.00 0.00 1018.0
20260901131539 0 24 9.6 15.6 0.00 0.00 0.00 1018.2
20260901130024 0 46 7.8 14.8 0.00 0.00 0.00 1018.4
20260901124521 0 36 8.7 13.0 0.00 0.00 0.00 1018.6
20260901123030 0 59 1.7 19.1 0.00 0.00 0.00 1018.6
20260901121520 0 3 11.3 19.1 0.00 0.00 0.00 1018.6
20260901120019 0 20 6.1 19.1 0.00 0.00 0.00 1018.8
20260901114535 0 46 5.2 26.9 0.00 0.00 0.00 1018.8
20260901113021 0 17 7.8 16.5 0.00 0.00 0.00 1018.9
20260901111515 0 46 8.7 13.9 0.00 0.00 0.00 1019.0
20260901110013 0 18 8.7 15.6 0.00 0.00 0.00 1019.0
20260901104513 0 19 6.1 11.3 0.00 0.00 0.00 1018.9
20260901103016 0 54 5.2 14.8 0.00 0.00 0.00 1018.9
20260901101505 0 36 7.0 11.3 0.00 0.00 0.00 1018.9
20260901100104 0 54 3.5 8.7 0.00 0.00 0.00 1018.7
20260901094557 0 329 0.0 6.1 0.00 0.00 0.00 1018.6
20260901093052 0 237 2.6 7.0 0.00 0.00 0.00 1018.7
20260901091547 0 233 0.0 5.2 0.00 0.00 0.00 1018.6
20260901090043 0 245 2.6 7.0 0.00 0.00 0.00 1018.5
20260901084553 0 236 1.7 5.2 0.00 0.00 0.00 1018.5
20260901083037 0 266 3.5 6.1 0.00 0.00 0.00 1018.4
20260901081531 0 231 4.3 7.0 0.00 0.00 0.00 1018.2
20260901080028 0 234 2.6 7.8 0.00 0.00 0.00 1018.1
20260901074523 0 213 4.3 8.7 0.00 0.00 0.00 1017.9
20260901073018 0 237 6.1 8.7 0.00 0.00 0.00 1017.7
20260901071514 0 228 5.2 8.7 0.00 0.00 0.00 1017.7
20260901070009 0 239 2.6 7.0 0.00 0.00 0.00 1017.6
20260901064507 0 237 5.2 7.8 0.00 0.00 0.00 1017.3
20260901063115 0 243 0.0 5.2 0.00 0.00 0.00 1017.3
20260901061556 0 239 2.6 5.2 0.00 0.00 0.00 1017.0
20260901060051 0 252 1.7 5.2 0.00 0.00 0.00 1017.0
20260901054547 0 234 7.0 13.0 0.00 0.00 0.00 1017.0
20260901053051 0 236 5.2 8.7 0.00 0.00 0.00 1017.0
20260901051539 0 230 3.5 7.0 0.00 0.00 0.00 1016.9
20260901050034 0 226 2.6 7.0 0.00 0.00 0.00 1016.9
20260901044535 0 235 4.3 7.0 0.00 0.00 0.00 1016.9
20260901043026 0 233 4.3 7.0 0.00 0.00 0.00 1017.1
20260901041520 0 253 4.3 7.0 0.00 0.00 0.00 1016.9
20260901040016 0 257 2.6 4.3 0.00 0.00 0.00 1016.9
20260901034515 0 260 1.7 5.2 0.00 0.00 0.00 1017.0
20260901033007 0 246 0.0 0.0 0.00 0.00 0.00 1017.1
20260901031504 0 68 3.5 8.7 0.00 0.00 0.00 1017.3
20260901030058 0 259 0.0 5.2 0.00 0.00 0.00 1017.6
20260901024600 0 255 2.6 6.1 0.00 0.00 0.00 1017.7
20260901023054 0 285 0.0 3.5 0.00 0.00 0.00 1017.8
20260901021550 0 256 0.0 4.3 0.00 0.00 0.00 1018.1
20260901020042 0 243 3.5 9.6 0.00 0.00 0.00 1018.0
20260901014537 0 241 4.3 7.8 0.00 0.00 0.00 1018.3
20260901013037 0 254 3.5 7.0 0.00 0.00 0.00 1018.4
20260901011532 0 253 4.3 6.1 0.00 0.00 0.00 1018.4
20260901010027 0 250 2.6 5.2 0.00 0.00 0.00 1018.6
20260901004517 0 246 2.6 4.3 0.00 0.00 0.00 1018.7
20260901003021 0 264 1.7 4.3 0.00 0.00 0.00 1018.9
20260901001508 0 264 3.5 7.8 0.00 0.00 0.00 1019.0
20260901000004 0 250 1.7 4.3 0.00 0.00 0.00 1019.0
20260831234600 0 245 0.0 0.0 0.00 0.00 0.00 1018.9
20260831233037 0 245 0.0 2.6 0.00 0.00 0.00 1019.1
20260831231532 0 230 0.0 5.2 0.00 0.00 0.00 1019.2
20260831230028 0 295 0.0 6.1 0.00 0.00 0.00 1019.3
20260831224527 0 292 3.5 6.1 0.00 0.00 0.00 1019.3
20260831223024 0 248 0.0 4.3 0.00 0.00 0.00 1019.4
20260831221528 0 237 0.0 4.3 0.00 0.00 0.00 1019.6
20260831220015 0 310 2.6 3.5 0.00 0.00 0.00 1019.5
20260831214509 0 287 0.0 3.5 0.00 0.00 0.00 1019.5
20260831213009 0 302 1.7 5.2 0.00 0.00 0.00 1019.3
20260831211502 0 170 0.0 4.3 0.00 0.00 0.00 1019.1
20260831210057 0 46 0.0 3.5 0.00 0.00 0.00 1018.8
20260831204553 0 13 0.9 4.3 0.00 0.00 0.00 1018.4
20260831203049 0 28 6.1 11.3 0.00 0.00 0.00 1018.0
20260831201544 0 63 3.5 9.6 0.00 0.00 0.00 1017.8
20260831200042 0 41 3.5 10.4 0.00 0.00 0.00 1017.6
20260831194535 0 69 3.5 10.4 0.00 0.00 0.00 1017.4
20260831193039 0 143 4.3 10.4 0.00 0.00 0.00 1017.2
20260831191526 0 70 4.3 14.8 0.00 0.00 0.00 1017.1
20260831190038 0 76 5.2 14.8 0.00 0.00 0.00 1017.2
20260831184516 0 110 7.0 14.8 0.00 0.00 0.00 1017.1
20260831183015 0 73 7.8 14.8 0.00 0.00 0.00 1016.8
20260831181508 0 78 7.0 17.4 0.00 0.00 0.00 1016.8
20260831180104 0 52 8.7 16.5 0.00 0.00 0.00 1017.0